Regional Weather Roundup
Issued by NWS

Home | Current Version | Previous Version | Text Only | Print | Product List | Glossary Off
Versions: 1 2 3 4 5 6 7 8 9 10 11 12 13 14 15 16 17 18 19 20 21 22 23 24 25 26 27 28 29 30 31 32 33 34 35 36 37 38 39 40 41 42 43 44 45 46 47 48 49 50

099
ASUS45 KCYS 231210
RWRWY

WYOMING REGIONAL WEATHER ROUNDUP
NATIONAL WEATHER SERVICE CHEYENNE WY
600 AM MDT THU MAR 23 2017

NOTE:  "FAIR" INDICATES FEW OR NO CLOUDS BELOW 12,000 FEET
WITH NO SIGNIFICANT WEATHER AND/OR OBSTRUCTIONS TO VISIBILITY.

WYZ001-231300-
YELLOWSTONE NATIONAL PARK

CITY           SKY/WX    TMP DP  RH WIND       PRES   REMARKS
LK YELLOWSTONE   N/A     26  25  96 CALM      29.81S
6HR MIN TEMP:  25; 6HR MAX TEMP:  30;

W YELLOWSTONE  NOT AVBL

$$
WYZ002>013-054>058-071-098>099-231300-
NORTHERN WYOMING

CITY           SKY/WX    TMP DP  RH WIND       PRES   REMARKS
JACKSON        FAIR      34  34 100 N6        29.76F WCI  29
CODY           CLOUDY    46  34  62 N8G21     29.76R
GREYBULL       CLOUDY    49  38  65 NW17      29.68R
6HR MIN TEMP:  47; 6HR MAX TEMP:  53; 6HR PCP: TRACE;

WORLAND        LGT RAIN  46  42  86 W3        29.71R
6HR MIN TEMP:  46; 6HR MAX TEMP:  53; 6HR PCP:  0.02;

SHERIDAN       LGT RAIN  45  42  89 W13       29.74R
6HR MIN TEMP:  40; 6HR MAX TEMP:  46; 6HR PCP:  0.02;

BUFFALO        LGT RAIN  44  38  79 NW18G26   29.73F
6HR MIN TEMP:  43; 6HR MAX TEMP:  49; 6HR PCP:  0.05;

GILLETTE       FOG       39  39 100 CALM      29.69F VSB 1/2
6HR MIN TEMP:  39; 6HR MAX TEMP:  51; 6HR PCP: TRACE;

HULETT         FAIR      41  39  93 CALM      29.72R
NEWCASTLE      FAIR      45  36  70 N9        29.67S

$$
WYZ014>020-022>026-101>103-231300-
CENTRAL WYOMING

CITY           SKY/WX    TMP DP  RH WIND       PRES   REMARKS
BIG PINEY      LGT SNOW  32  32 100 E6        29.73F VSB 3/4 WCI  26
6HR MIN TEMP:  32; 6HR MAX TEMP:  34; 6HR PCP:  0.05;

PINEDALE       LGT SNOW  32  32 100 NW10      29.73F WCI  24
DUBOIS         FLURRIES  34  30  86 NW3       29.75F
LANDER         LGT RAIN  40  39  97 CALM      29.70F
6HR MIN TEMP:  40; 6HR MAX TEMP:  47; 6HR PCP:  0.03;

RIVERTON       CLOUDY    41  40  96 S5        29.73F
6HR MIN TEMP:  41; 6HR MAX TEMP:  50; 6HR PCP:  0.03;

CASPER         FAIR      36  36 100 N6        29.72R WCI  31
6HR MIN TEMP:  34; 6HR MAX TEMP:  46; 6HR PCP: TRACE;

DOUGLAS        FAIR      36  34  92 CALM      29.71F
6HR MIN TEMP:  36; 6HR MAX TEMP:  47;


$$
WYZ021-027>030-104>119-231300-
SOUTHERN WYOMING

CITY           SKY/WX    TMP DP  RH WIND       PRES   REMARKS
EVANSTON       LGT SNOW  33  30  88 NW9       29.71S VSB 3/4 WCI  25
6HR MIN TEMP:  33; 6HR MAX TEMP:  37; 6HR PCP: TRACE;

KEMMERER       LGT SNOW  32  32 100 N8        29.71F WCI  25
FORT BRIDGER   LGT RAIN  38  38 100 SE10      29.73R WCI  31
ROCK SPRINGS   LGT RAIN  35  33  92 E7        29.71F WCI  29
6HR MIN TEMP:  35; 6HR MAX TEMP:  40; 6HR PCP:  0.31;

DIXON            N/A     37  33  83 E8        29.75F WCI  31
RAWLINS        FAIR      36  32  85 NW3       29.75F
6HR MIN TEMP:  36; 6HR MAX TEMP:  48;

SARATOGA       FAIR      45  30  57 S18       29.75S
LARAMIE        FAIR      31  23  72 S7        29.77F WCI  24
6HR MIN TEMP:  29; 6HR MAX TEMP:  46;

CHEYENNE       FAIR      39  29  67 W8        29.74R WCI  33
6HR MIN TEMP:  37; 6HR MAX TEMP:  51;

TORRINGTON     FAIR      38  33  82 NE10      29.67F WCI  31
6HR MIN TEMP:  37; 6HR MAX TEMP:  50;

PINE BLUFFS    FAIR      32  32 100 W9        29.71S WCI  24

$$




USA.gov is the U.S. government's official web portal to all federal, state and local government web resources and services.